GFSNIL_sfc_thetae_000.txt.gz
Theta_e
330 328 327 328 329 323 325 329 330 329 329 329 330 332 332 330 329 330 329 328 327 326
330 331 332 332 328 325 328 330 329 330 329 330 332 331 331 330 330 329 328 328 328 326
332 332 331 329 328 329 327 329 329 329 330 330 330 330 329 328 328 327 327 328 328 326
334 333 330 330 329 329 329 330 332 332 331 329 328 330 329 329 329 327 327 327 326 326
336 333 331 330 330 330 330 329 328 328 328 328 330 330 329 328 329 327 326 326 324 324
329 329 330 330 329 329 328 327 328 326 324 327 328 328 329 329 329 327 327 326 323 323
327 327 329 330 329 329 328 327 326 326 328 328 327 327 328 328 328 327 326 325 324 324
331 329 328 329 329 329 328 328 327 328 328 328 328 330 329 329 327 325 324 325 325 324
333 331 330 331 330 329 328 327 327 328 328 326 329 328 328 325 321 321 321 320 321 321
333 332 332 332 330 329 328 326 327 327 325 326 326 324 323 328 320 318 317 317 318 320
334 333 332 330 329 329 329 328 328 325 327 326 325 324 321 325 319 318 318 319 319 318
334 333 331 329 329 330 328 327 327 328 328 324 325 321 319 320 318 317 316 315 317 318
334 332 330 330 331 332 330 328 331 329 327 322 324 318 316 317 317 313 312 315 316 317
334 333 332 332 333 331 328 324 323 324 324 323 321 319 314 313 313 313 313 311 310 311

GFSNIL_sfc_thetae_003.txt.gz
Theta_e
327 326 327 326 325 323 325 327 327 327 326 324 326 329 330 329 327 327 328 326 325 324
327 326 325 327 326 321 322 327 327 326 325 326 329 330 328 327 328 328 327 326 326 325
329 328 329 329 325 323 325 326 326 325 326 326 328 328 326 325 326 326 326 326 326 326
329 331 329 328 326 325 325 324 325 326 327 328 326 325 326 326 327 326 325 326 326 326
332 331 329 327 327 326 325 325 328 328 327 326 325 326 327 327 327 326 325 325 324 325
332 332 329 329 328 327 326 326 324 324 322 321 322 324 325 326 326 325 326 326 323 323
334 334 332 331 329 326 325 324 323 323 322 322 323 324 324 324 325 325 326 325 323 322
334 333 332 331 329 327 327 327 324 323 322 324 325 326 324 325 326 325 324 323 322 323
332 330 329 329 328 326 328 326 324 323 324 324 326 325 327 328 322 321 320 318 317 318
334 331 328 329 327 327 327 326 323 323 324 324 323 323 323 328 320 317 316 314 315 317
334 332 329 326 327 328 327 326 324 324 324 322 324 321 320 325 321 317 315 316 316 314
335 332 329 329 330 330 326 325 325 324 324 324 323 320 319 319 319 316 315 313 313 315
335 333 329 330 330 330 328 327 326 326 323 323 324 318 316 315 316 313 311 312 313 314
330 330 331 329 327 327 329 326 326 328 327 326 322 321 313 313 314 312 312 310 308 309

GFSNIL_sfc_thetae_006.txt.gz
Theta_e
341 333 333 332 330 329 329 332 334 332 333 329 330 333 335 334 333 333 334 332 330 331
336 330 330 331 330 329 329 331 331 331 331 329 330 335 334 333 333 333 333 333 332 330
333 330 329 329 329 327 327 330 331 331 330 330 330 333 333 331 332 332 332 331 331 332
330 329 329 330 330 328 327 328 329 329 329 330 330 332 330 330 331 331 332 332 331 331
330 331 330 330 330 329 328 328 329 330 330 331 332 332 330 330 333 332 331 331 331 331
330 331 331 331 330 329 328 328 328 330 330 329 329 328 328 330 331 331 330 331 330 330
331 332 332 332 330 330 329 328 328 329 328 327 327 327 329 330 330 329 330 331 330 329
334 334 333 332 332 331 329 329 329 328 327 328 327 327 329 330 329 330 330 330 329 328
336 335 334 334 333 330 329 328 328 327 328 327 328 325 326 331 330 330 329 327 326 324
336 333 331 332 333 330 328 328 328 328 328 328 329 322 323 327 330 327 325 324 323 323
335 333 331 330 329 331 328 327 328 328 328 328 328 321 320 324 330 327 325 323 322 322
336 334 333 332 329 330 329 329 330 330 329 327 329 320 319 322 327 326 324 322 320 319
338 334 330 332 331 330 331 330 332 329 328 324 327 319 318 320 325 323 320 319 320 316
338 336 333 330 329 328 330 330 328 325 323 327 327 327 317 313 322 320 318 317 317 316

GFSNIL_sfc_thetae_009.txt.gz
Theta_e
361 358 355 354 348 347 348 346 346 346 347 348 345 343 345 343 342 344 341 343 343 337
360 359 355 353 349 348 349 343 345 345 346 344 340 343 345 340 342 343 343 342 343 340
358 358 357 352 346 346 346 344 344 344 343 341 340 341 344 341 341 341 340 339 341 341
356 354 355 350 343 342 344 343 343 343 341 341 340 341 342 342 341 339 340 342 341 341
354 353 346 348 342 345 335 342 342 342 341 341 340 341 341 340 337 338 338 339 340 340
349 347 350 340 340 340 340 341 339 340 340 340 340 342 342 340 338 339 339 339 339 338
349 350 342 340 343 340 337 339 340 339 341 340 341 340 339 337 338 339 338 339 339 339
349 348 349 343 336 333 334 335 336 337 338 339 338 335 337 338 338 339 338 339 340 340
351 347 346 341 338 333 332 332 334 333 334 337 334 327 327 334 337 339 339 337 339 338
350 346 344 341 340 337 334 332 333 332 332 338 339 325 324 328 336 338 338 338 337 334
349 346 343 342 341 338 334 338 332 334 337 340 339 322 320 325 335 337 338 337 336 334
348 345 343 342 338 341 337 335 337 336 337 337 337 321 319 326 331 333 333 337 334 331
349 346 343 341 337 339 338 335 336 336 339 333 340 318 316 323 329 328 329 332 329 318
347 346 345 339 339 338 337 332 332 336 338 335 333 332 314 315 334 328 327 328 326 327

GFSNIL_sfc_thetae_012.txt.gz
Theta_e
367 361 360 361 350 347 344 345 352 354 349 349 350 350 346 342 342 344 342 343 343 336
366 365 361 363 360 352 353 346 351 351 348 347 349 346 346 341 343 343 343 342 343 339
363 365 365 363 360 358 353 352 350 349 345 347 346 345 346 342 343 343 338 336 339 341
361 362 364 363 361 359 355 353 350 350 346 346 343 344 345 344 340 340 341 340 341 342
362 362 361 364 361 360 355 351 351 349 347 344 343 343 343 340 338 338 337 338 340 340
360 360 362 362 361 352 352 347 346 346 343 343 343 342 343 343 341 339 338 340 339 339
360 360 359 361 356 349 343 344 340 344 342 342 343 343 341 341 341 339 338 340 341 340
362 361 359 361 355 349 345 344 341 338 339 340 341 338 343 341 338 338 339 340 340 341
364 362 359 361 353 348 342 343 337 334 332 334 337 330 329 336 337 339 340 339 341 341
363 360 358 358 352 347 345 342 336 332 333 335 337 326 326 329 335 337 339 341 343 340
361 358 355 352 349 348 344 340 340 337 337 337 337 326 324 328 337 338 341 342 342 341
358 356 353 349 344 344 343 339 337 337 340 339 339 321 320 326 337 337 340 341 338 337
359 357 351 350 348 343 339 337 335 339 340 334 338 321 317 321 334 338 331 334 340 323
359 356 352 352 347 342 337 337 340 341 341 337 336 335 315 315 335 333 332 334 335 331

GFSNIL_sfc_thetae_015.txt.gz
Theta_e
374 360 358 362 354 348 347 349 364 356 354 349 350 350 351 344 342 348 342 342 344 338
373 371 360 366 366 355 358 349 353 356 352 349 349 350 351 342 346 345 345 345 344 339
370 373 372 372 370 363 361 359 359 354 351 349 349 349 349 346 347 345 341 338 343 343
366 368 371 370 369 368 360 362 357 357 351 348 349 346 347 347 344 343 345 343 341 342
368 368 366 369 370 370 365 361 359 356 352 350 347 348 345 343 342 340 339 339 343 340
365 367 366 369 369 369 366 363 354 354 348 349 344 342 342 346 345 343 343 342 343 342
364 365 366 370 369 369 368 361 352 354 351 347 342 342 340 342 342 344 343 344 344 343
365 367 368 368 370 369 365 359 355 353 350 347 342 339 336 342 341 343 343 343 344 344
368 368 367 369 369 368 364 359 355 351 347 341 338 329 332 341 341 342 343 343 345 346
371 370 370 370 369 365 363 356 351 349 345 342 339 327 328 331 339 340 340 341 345 343
371 372 371 368 366 362 356 349 350 348 344 339 341 327 325 329 337 337 337 341 346 346
370 369 368 364 361 355 351 347 343 343 341 340 344 324 322 327 333 335 335 339 344 345
368 367 364 361 357 356 353 346 342 340 338 333 343 322 320 325 337 339 336 338 344 327
365 365 365 362 356 353 350 345 342 338 341 344 343 340 315 316 335 333 331 333 338 338

GFSNIL_sfc_thetae_018.txt.gz
Theta_e
367 366 361 365 360 357 354 354 355 357 356 355 354 354 354 351 347 349 345 344 346 342
366 365 363 364 364 359 359 362 355 355 356 352 354 353 354 347 346 348 348 347 345 343
366 365 364 364 364 358 361 359 357 356 354 351 350 353 350 345 347 347 345 346 345 344
366 367 365 366 363 361 363 358 358 356 352 349 348 350 346 343 343 341 344 343 343 342
366 366 366 363 366 365 361 363 358 355 351 348 346 347 344 340 340 341 340 341 341 340
362 364 363 366 363 367 363 359 353 355 350 347 346 344 342 342 341 338 340 340 340 338
361 361 361 364 366 365 364 360 357 353 351 347 346 344 342 341 342 342 342 343 342 342
361 362 363 362 365 365 365 362 359 353 352 348 345 343 342 342 342 342 341 342 342 342
359 362 361 364 362 365 364 363 359 354 351 348 345 332 333 340 341 343 341 338 342 341
358 360 361 362 363 363 363 363 359 353 350 349 346 327 328 333 342 342 342 339 341 334
359 360 362 362 362 363 363 362 359 353 348 346 345 327 326 330 339 340 341 336 333 335
366 364 363 363 363 364 364 361 353 348 344 342 341 324 323 327 334 334 335 335 331 336
370 370 367 367 366 366 360 353 348 345 344 335 338 321 320 323 331 330 334 340 337 328
370 370 370 369 364 355 351 349 345 341 339 337 336 336 317 317 335 334 334 334 334 333

GFSNIL_sfc_thetae_021.txt.gz
Theta_e
356 352 351 352 347 344 344 345 347 349 344 341 339 344 342 337 337 336 333 332 332 331
355 357 356 351 353 346 342 347 347 350 344 341 340 339 341 337 336 338 334 333 332 329
358 356 356 353 351 349 344 349 346 349 345 343 341 340 340 335 338 335 338 335 335 333
360 358 357 355 352 350 349 347 347 348 346 341 341 342 340 335 334 337 333 335 335 334
358 359 356 354 355 354 349 349 349 348 346 342 338 341 340 335 336 334 335 334 332 331
357 358 358 355 356 357 352 351 349 349 345 342 340 340 342 337 334 334 334 335 333 332
357 358 358 359 356 356 357 352 347 347 345 343 340 341 339 336 334 334 334 334 335 334
357 358 359 358 359 356 356 354 350 347 345 343 339 340 336 336 335 334 334 334 334 336
355 356 355 356 356 359 355 356 351 346 345 342 342 335 334 337 336 335 334 333 335 335
353 353 354 355 355 356 357 357 354 350 345 344 342 330 330 335 334 335 334 334 336 336
352 352 354 354 355 355 357 356 356 353 347 345 342 329 328 333 333 333 334 336 336 332
350 351 352 353 353 355 355 356 356 353 348 345 338 323 324 328 330 332 332 332 333 326
350 350 352 354 354 356 356 355 352 346 346 337 337 322 320 324 330 328 329 330 331 326
354 353 356 355 357 356 352 346 343 342 340 338 336 328 318 317 330 329 327 328 332 331

GFSNIL_sfc_thetae_024.txt.gz
Theta_e
349 349 348 346 346 349 348 345 347 347 343 339 337 337 336 333 334 331 330 331 328 326
352 350 348 347 347 347 346 343 346 346 341 338 337 339 338 333 332 334 331 329 328 329
350 353 351 350 348 345 342 344 344 345 341 339 336 337 337 334 332 334 333 333 331 329
352 351 353 354 350 348 343 343 343 346 342 339 336 335 337 334 334 331 331 334 332 331
354 353 351 352 352 350 346 344 344 345 344 341 338 336 337 335 335 334 332 330 332 330
355 354 352 351 352 350 349 345 345 344 344 341 339 338 338 337 334 332 333 333 331 330
354 356 355 353 352 352 351 346 345 345 344 343 339 337 340 339 335 333 332 333 333 331
353 355 357 355 353 352 354 350 346 345 344 343 341 339 337 338 335 332 331 332 333 333
355 354 354 355 355 353 351 354 347 344 344 340 341 334 334 337 335 334 333 331 331 332
354 354 354 355 355 355 352 351 349 343 343 340 341 330 331 334 334 333 335 334 331 332
354 353 354 354 354 354 356 352 352 347 344 344 342 329 327 333 337 336 336 335 334 333
353 351 352 351 352 353 354 354 353 353 346 344 342 325 324 331 335 335 334 336 336 336
353 351 350 352 351 353 354 354 354 353 348 340 345 321 320 330 333 331 330 332 332 325
351 350 351 351 352 352 353 353 353 350 345 343 337 324 317 320 331 331 328 328 326 329

GFSNIL_sfc_thetae_027.txt.gz
Theta_e
348 346 345 342 343 345 347 346 348 348 346 339 335 336 333 332 330 329 329 328 327 328
348 347 345 343 344 346 346 347 345 348 345 340 335 336 333 331 331 330 328 328 328 327
347 348 347 345 345 345 345 344 344 346 344 340 336 336 335 331 330 332 329 328 327 327
348 348 348 346 346 346 343 342 343 345 342 339 336 336 335 333 331 330 330 330 329 327
347 349 349 348 348 348 344 341 342 343 342 339 337 334 337 335 334 330 328 329 330 329
347 347 347 349 351 349 347 342 342 343 342 340 337 335 335 336 335 333 332 328 328 330
349 349 349 348 349 350 349 344 342 342 343 342 340 337 336 334 334 332 332 332 331 329
350 351 350 349 348 349 349 347 345 342 342 342 340 339 338 336 334 332 332 331 332 332
350 351 351 351 349 348 348 348 345 343 342 341 341 334 333 338 337 333 333 331 332 332
349 349 351 352 351 349 347 349 345 344 344 341 341 330 330 334 337 334 333 332 334 333
350 349 350 351 351 351 349 348 349 345 344 343 341 328 326 332 335 333 334 335 335 334
352 350 350 349 350 351 351 349 348 347 343 342 342 325 323 328 336 335 335 336 335 334
352 351 351 351 351 352 353 352 351 349 346 340 345 322 320 328 337 334 334 335 334 327
352 352 352 352 352 352 352 352 352 351 351 346 344 332 317 322 336 335 333 333 331 330

GFSNIL_sfc_thetae_030.txt.gz
Theta_e
347 346 346 345 346 346 347 348 352 351 350 347 344 342 339 336 334 336 336 334 333 333
347 347 346 346 346 346 348 349 350 351 350 348 344 341 338 336 335 335 335 335 335 333
347 349 348 347 345 346 347 350 349 350 350 348 343 341 338 336 336 336 334 333 334 334
348 348 349 346 347 347 348 348 347 349 349 347 343 340 339 337 336 336 335 335 333 334
348 348 348 347 347 348 346 347 347 348 348 346 344 341 339 337 337 335 334 335 334 334
347 347 347 347 348 348 347 346 346 347 346 344 343 340 341 340 338 337 336 335 335 335
347 347 348 349 349 348 349 345 345 345 346 345 344 342 340 340 339 338 338 337 335 335
346 348 348 349 350 350 350 348 345 345 345 345 344 342 341 339 338 338 337 338 338 336
347 347 347 348 348 349 350 350 347 345 344 344 344 335 333 339 338 338 337 336 337 338
347 347 348 349 348 347 347 349 347 346 345 344 345 329 330 335 341 338 337 337 337 336
347 347 349 349 349 348 348 347 348 347 346 345 345 326 326 333 342 340 339 338 337 338
349 348 349 349 349 350 349 348 348 348 346 345 346 324 324 329 340 338 337 337 338 337
349 348 348 349 350 352 351 350 350 349 349 341 346 324 320 328 340 336 336 338 337 328
350 350 349 350 350 350 351 351 350 349 349 347 345 341 318 320 341 339 337 335 335 336

GFSNIL_sfc_thetae_033.txt.gz
Theta_e
360 356 356 357 353 353 353 356 363 363 363 363 362 360 358 354 351 350 348 347 346 342
358 359 357 360 361 355 361 356 360 362 362 362 361 359 357 352 351 348 348 347 347 343
356 359 359 361 359 360 360 360 359 360 361 361 361 359 356 352 352 348 346 344 346 346
356 357 359 358 360 360 362 361 361 360 360 360 360 358 356 354 351 347 347 346 345 345
357 357 357 358 359 361 361 361 363 361 360 360 359 358 356 353 350 348 346 346 345 344
355 357 357 358 359 361 361 361 358 360 360 358 359 358 356 355 352 350 349 347 346 345
356 356 357 359 359 360 361 361 361 361 360 359 358 358 356 355 353 351 350 349 347 346
357 358 358 359 359 360 360 360 361 360 360 359 357 354 356 355 353 352 350 349 348 347
357 358 358 358 359 359 359 360 360 359 359 358 355 340 337 350 354 353 352 350 349 350
356 356 357 358 359 358 358 359 359 358 358 357 358 332 332 337 353 352 353 353 351 347
354 355 356 357 357 358 359 359 358 358 358 358 357 329 328 334 352 355 354 353 352 351
352 351 356 355 356 357 357 357 358 359 359 357 358 326 325 332 349 352 352 351 351 351
356 355 356 356 357 358 358 357 357 358 360 349 358 325 321 331 349 351 349 352 352 331
358 357 358 359 360 360 357 357 356 357 359 359 355 352 319 320 351 351 349 348 347 348

GFSNIL_sfc_thetae_039.txt.gz
Theta_e
372 361 360 364 356 355 353 354 370 371 371 371 371 368 374 364 362 365 359 358 357 346
372 370 362 367 369 362 365 357 367 369 370 369 370 372 374 361 366 365 362 361 359 350
372 373 371 371 370 367 368 371 372 368 367 368 371 372 373 365 369 366 359 354 362 357
371 371 374 370 372 372 372 375 371 372 369 370 370 371 372 369 368 365 364 362 362 359
371 370 370 371 372 374 373 374 374 375 372 371 370 371 370 367 361 365 362 360 360 356
368 369 369 371 372 374 374 374 372 372 373 371 370 370 371 370 367 367 365 363 361 357
368 368 368 370 373 373 375 374 373 373 373 373 371 370 369 369 369 367 365 365 364 361
368 371 371 371 372 373 374 374 374 372 372 374 372 366 369 368 368 368 366 366 366 364
369 371 371 372 372 374 373 374 374 373 372 372 369 347 341 359 367 369 368 365 367 366
368 369 371 373 373 372 372 373 373 372 372 371 372 338 335 341 366 367 367 367 367 364
367 369 371 372 372 373 373 372 372 372 373 372 371 339 330 336 361 364 366 367 367 368
368 368 370 370 370 372 371 371 371 372 372 372 372 335 328 333 358 360 362 366 367 368
370 370 370 371 372 373 372 370 369 369 372 360 371 340 326 332 358 357 358 363 366 340
370 371 371 372 374 373 371 367 370 369 370 371 367 368 324 322 357 357 357 358 359 363

GFSNIL_sfc_thetae_042.txt.gz
Theta_e
363 361 355 361 355 353 355 357 365 363 366 365 367 366 370 368 365 365 361 362 357 353
360 364 359 357 363 362 360 362 368 365 365 365 367 365 368 363 364 366 362 359 361 355
364 364 363 361 362 360 366 363 374 366 365 366 366 367 367 365 365 363 362 358 357 356
365 364 364 362 363 367 363 372 365 369 366 365 365 365 367 363 362 363 360 359 358 355
366 367 365 363 363 365 367 366 370 368 366 365 364 366 363 362 358 361 359 357 357 356
365 365 365 365 364 365 364 367 364 368 367 364 364 364 365 363 361 356 361 360 356 354
365 366 366 367 367 365 367 364 366 365 365 366 365 364 364 364 364 362 359 362 360 357
364 367 367 366 367 369 367 367 366 366 367 366 366 365 364 363 363 362 360 360 362 360
363 364 366 366 366 367 368 367 368 366 364 365 365 349 343 357 362 363 362 360 360 361
363 364 365 366 366 365 366 367 367 367 367 364 366 341 338 342 362 361 362 362 360 360
365 364 366 366 365 366 366 366 366 366 367 366 365 340 333 338 359 360 361 362 362 360
366 364 365 365 365 366 366 366 367 367 367 366 366 335 331 333 355 357 359 361 362 362
362 365 364 365 366 368 367 366 367 366 367 357 366 340 328 332 358 355 355 357 359 339
366 363 366 367 368 368 367 367 366 366 367 367 363 364 326 322 359 358 355 354 354 357

GFSNIL_sfc_thetae_045.txt.gz
Theta_e
353 350 348 348 347 344 349 352 354 357 359 356 357 356 357 355 356 353 348 349 344 338
350 356 349 345 349 343 347 351 356 357 359 357 357 356 355 357 354 355 351 348 349 344
352 350 355 348 346 352 348 348 355 356 356 357 358 357 355 356 356 353 354 351 349 347
356 354 353 354 348 352 352 355 353 357 356 357 357 358 355 355 354 354 352 350 349 348
357 357 353 353 354 349 355 354 357 359 358 358 357 357 357 355 356 351 352 351 347 348
356 357 356 355 353 356 351 357 354 358 358 358 358 357 357 358 355 352 354 353 351 348
357 357 358 358 357 352 357 355 359 355 358 358 358 358 358 357 357 355 351 355 353 351
359 359 359 359 360 359 355 358 356 358 357 360 357 358 357 358 357 356 354 351 356 355
359 359 359 359 359 360 360 357 359 356 357 357 360 346 343 354 357 357 356 354 352 356
357 358 359 360 360 359 360 361 358 359 357 357 359 339 337 342 357 356 357 357 356 353
355 356 358 358 358 359 360 360 361 359 360 359 359 338 333 338 356 357 357 357 357 356
355 355 356 356 358 359 359 359 359 361 361 360 361 333 331 334 353 356 356 357 357 358
356 357 356 357 358 359 360 359 360 360 361 353 361 335 327 332 355 354 354 356 356 338
357 357 359 358 360 359 359 360 359 359 361 362 358 358 325 323 355 356 355 354 353 355

GFSNIL_sfc_thetae_048.txt.gz
Theta_e
346 347 345 342 339 339 345 349 351 355 355 353 354 353 352 350 348 345 344 344 338 336
348 347 347 343 342 338 343 351 351 354 356 353 354 353 352 351 351 350 346 343 345 339
348 352 349 345 343 348 341 348 351 351 355 355 354 353 351 351 351 351 349 347 344 343
347 346 353 348 344 345 347 343 346 352 353 355 354 353 351 350 352 350 350 350 346 344
351 349 346 352 349 346 346 348 347 351 352 354 354 354 352 351 353 352 350 351 348 346
351 352 350 347 351 351 347 347 349 354 353 354 354 354 355 353 351 352 352 352 349 349
351 353 354 352 349 351 352 346 350 352 356 355 356 355 355 355 354 353 352 352 352 351
352 354 356 355 353 352 351 353 349 350 352 356 356 356 355 355 354 354 352 351 353 352
354 354 354 355 355 354 353 350 352 352 352 352 357 344 341 352 354 354 352 351 350 352
353 354 355 355 355 355 355 354 350 352 353 352 354 337 336 341 355 354 354 353 352 351
354 354 356 355 355 356 356 356 356 353 353 354 354 334 332 337 353 354 354 355 355 353
353 355 355 355 356 357 357 357 357 358 356 354 356 331 329 333 349 354 355 355 355 356
350 353 354 355 355 357 358 357 358 358 360 351 357 333 326 332 352 352 353 356 356 338
349 350 353 354 356 356 357 356 356 356 357 358 356 355 324 323 354 355 354 354 354 356

GFSNIL_sfc_thetae_051.txt.gz
Theta_e
342 342 342 341 339 338 341 344 348 351 351 350 350 349 347 346 346 342 343 340 335 334
344 343 342 341 341 339 339 345 346 349 351 350 351 350 349 348 347 345 341 342 340 336
345 345 344 341 339 339 338 343 347 348 350 351 351 351 349 348 348 348 345 343 340 340
346 345 346 344 343 343 341 341 345 347 349 352 351 351 349 348 349 348 348 347 344 342
346 347 348 346 343 343 344 343 342 347 348 351 352 352 350 348 349 349 347 349 346 346
345 344 345 350 350 345 342 342 345 344 348 349 351 351 351 350 349 349 350 350 348 349
346 347 345 345 347 350 348 344 345 347 348 349 351 352 352 351 350 349 350 351 351 351
347 349 349 348 346 347 350 350 347 347 349 351 352 352 352 352 351 349 349 350 351 351
347 349 350 350 350 347 346 349 349 346 347 349 353 342 340 349 352 351 350 349 350 351
348 347 349 352 352 350 348 348 347 349 348 346 350 335 336 341 353 352 351 350 350 350
350 350 350 350 351 352 352 350 349 347 348 349 349 334 331 337 351 353 352 353 352 351
350 350 351 351 351 352 353 353 352 352 349 348 350 329 328 333 349 351 352 353 353 353
351 351 350 353 353 353 354 353 355 355 355 346 351 331 325 330 349 349 350 352 354 337
351 351 353 354 354 354 354 355 354 354 356 357 353 352 323 322 349 351 351 351 352 354

GFSNIL_sfc_thetae_054.txt.gz
Theta_e
343 341 342 341 341 340 341 345 351 352 353 353 353 352 352 350 350 349 346 343 340 340
343 342 342 342 342 342 343 346 349 352 353 353 353 353 353 350 350 351 349 349 347 342
343 343 344 343 342 341 342 346 348 349 352 354 354 354 353 352 352 351 350 347 347 347
344 344 344 343 343 343 342 343 347 349 350 351 352 353 353 353 353 352 352 351 348 348
345 345 344 344 344 345 343 343 345 348 349 351 353 353 352 352 353 352 351 352 352 351
344 344 344 345 346 346 346 345 344 346 347 349 352 353 353 353 352 353 353 353 352 352
344 345 346 347 347 345 346 346 347 346 348 349 351 353 354 354 353 352 352 354 354 353
345 346 346 347 350 350 347 346 346 347 347 349 350 352 353 354 353 353 352 353 353 354
346 346 346 346 345 347 350 350 349 347 347 348 349 339 338 349 353 353 352 351 352 354
345 346 347 348 348 346 345 349 349 349 349 348 350 334 334 339 353 353 353 353 353 353
346 346 348 349 349 349 348 346 347 349 350 348 348 332 331 335 351 353 354 354 354 354
347 347 347 348 350 351 351 350 349 349 349 350 350 328 328 332 349 352 353 355 356 355
349 349 349 349 350 352 353 353 353 352 353 343 350 330 324 330 349 349 350 354 355 336
351 350 352 352 353 352 353 354 354 354 356 356 349 349 323 321 348 350 350 351 352 355

GFSNIL_sfc_thetae_057.txt.gz
Theta_e
357 350 350 354 350 349 349 352 360 362 363 364 365 364 364 360 359 361 356 356 352 347
356 356 352 356 355 351 356 351 356 360 361 362 363 364 364 359 360 361 360 359 359 353
355 356 356 356 355 356 354 355 354 358 360 361 363 364 364 361 362 361 359 358 360 360
353 353 354 354 355 357 356 356 356 358 358 360 360 362 363 362 362 361 362 361 360 359
353 354 352 354 354 357 358 356 356 358 359 359 359 360 360 359 358 359 360 361 362 359
351 352 354 355 355 357 357 357 354 356 357 357 358 359 360 360 360 360 361 362 362 362
352 353 353 356 357 355 358 356 356 356 357 357 357 358 358 359 360 360 361 362 362 362
354 355 356 357 357 357 357 358 359 357 356 356 355 354 358 358 359 360 360 361 362 363
355 356 356 357 357 358 357 357 358 356 356 356 353 339 338 352 357 360 360 360 361 362
356 355 356 357 358 358 358 356 356 355 356 357 360 334 333 338 356 358 361 361 360 359
355 355 356 356 356 357 358 359 359 358 359 358 359 333 330 334 354 359 361 362 363 364
355 355 356 356 357 357 356 356 356 357 358 358 360 330 328 334 353 356 360 362 363 363
355 355 356 357 358 360 359 356 355 355 358 349 360 333 324 331 352 355 353 361 364 338
358 357 359 360 360 359 358 359 359 358 360 359 355 356 323 320 353 353 354 354 355 358

GFSNIL_sfc_thetae_063.txt.gz
Theta_e
365 353 352 360 353 350 349 352 371 366 364 366 367 364 369 361 360 368 359 361 364 352
363 359 353 363 366 357 362 354 357 361 364 363 363 367 371 360 366 363 364 364 364 357
363 364 364 366 369 363 365 367 361 362 361 363 366 366 373 365 368 367 361 356 367 366
362 360 363 365 367 367 367 370 368 366 364 362 362 366 371 370 366 367 367 367 363 367
364 361 360 363 364 370 369 369 370 367 367 363 361 366 369 363 363 361 362 364 368 362
362 362 360 365 364 368 369 370 363 367 368 365 363 365 369 369 366 365 365 365 366 365
360 362 361 364 367 367 369 369 369 370 369 367 364 364 363 365 366 367 363 366 366 366
363 363 364 363 367 367 369 369 371 370 369 369 363 357 363 364 365 367 364 366 365 366
364 364 364 364 366 369 369 370 371 369 370 368 358 342 338 354 360 364 365 365 368 369
363 363 364 365 366 367 368 371 371 370 370 369 369 336 333 338 356 361 363 366 367 364
365 365 367 367 366 368 370 369 369 370 371 371 369 336 329 334 360 359 362 366 367 368
365 366 367 366 368 369 370 369 369 370 371 371 370 332 329 335 359 358 363 364 365 365
368 369 368 369 369 371 371 369 364 367 371 359 372 336 326 335 357 358 356 365 367 340
370 370 371 372 372 372 370 366 370 369 370 371 366 367 324 322 360 355 354 354 354 357

GFSNIL_sfc_thetae_066.txt.gz
Theta_e
361 355 356 363 357 363 355 358 363 366 366 368 368 367 367 364 365 364 364 363 365 360
359 358 353 362 366 359 365 362 364 366 367 368 366 366 367 361 363 361 364 365 365 364
353 358 359 354 364 361 365 364 364 366 365 365 369 368 366 362 363 363 360 361 363 363
356 355 354 357 355 360 361 373 368 371 367 365 364 369 368 364 362 361 361 364 364 362
360 357 355 351 359 363 367 365 374 367 370 365 364 365 365 363 358 361 360 362 363 363
358 358 357 353 356 362 360 364 363 369 364 366 363 362 363 364 363 362 363 363 364 363
358 358 357 358 354 359 364 362 363 363 365 365 364 362 361 365 364 363 362 365 363 365
359 359 360 358 359 358 359 362 364 363 364 365 364 361 360 360 362 363 363 363 363 364
358 359 360 359 359 360 360 362 363 364 363 363 363 345 340 354 357 363 361 360 361 365
358 358 359 360 358 360 359 361 362 363 364 364 364 338 335 340 356 357 358 362 361 361
358 357 359 359 359 358 360 360 362 363 364 365 365 339 330 335 353 356 359 360 359 361
356 358 359 358 359 359 359 361 361 362 364 364 365 335 331 333 351 352 355 356 358 361
358 359 359 359 359 361 361 360 362 362 364 355 364 338 328 333 355 352 353 357 359 339
365 360 363 363 363 362 362 362 363 362 364 366 362 362 326 322 356 354 354 353 354 358

GFSNIL_sfc_thetae_069.txt.gz
Theta_e
349 345 347 349 348 351 352 351 353 356 353 354 355 355 353 351 352 352 351 348 349 349
351 344 345 347 351 350 348 352 353 358 354 357 355 355 354 350 350 352 352 351 349 350
347 351 347 346 349 350 346 350 354 358 357 358 355 353 354 349 352 350 350 349 350 348
343 350 349 346 344 349 349 353 357 357 356 356 357 356 354 350 353 350 350 350 351 351
345 346 349 346 344 349 348 350 355 358 357 356 353 354 355 350 351 353 350 351 351 352
350 344 346 346 346 345 354 349 351 355 355 353 354 353 354 355 352 351 351 351 352 352
350 350 345 345 343 351 352 354 354 355 354 355 353 353 353 354 355 353 354 355 355 355
352 352 353 349 346 343 353 351 352 353 355 356 356 356 352 353 355 355 353 353 354 355
353 353 352 352 351 344 346 354 352 351 354 356 358 345 342 350 351 355 355 354 354 356
353 353 352 353 351 350 345 347 351 355 355 354 357 339 338 342 351 349 354 354 354 354
352 352 353 353 351 351 352 350 350 352 355 356 357 338 334 338 349 350 350 353 355 354
351 352 352 351 352 352 352 353 351 354 355 355 357 335 333 332 340 347 349 351 352 352
351 352 351 353 352 354 352 351 354 353 356 350 357 335 330 332 349 343 345 347 348 337
351 352 353 353 353 353 353 352 351 353 354 356 355 355 328 324 353 351 347 346 347 350

GFSNIL_sfc_thetae_072.txt.gz
Theta_e
342 342 342 345 347 348 350 352 353 355 351 351 351 351 350 348 349 350 347 346 345 346
347 342 342 345 347 349 349 350 351 354 351 352 351 351 349 347 346 349 348 348 345 346
343 347 341 344 344 348 347 348 349 354 351 350 352 351 350 347 347 347 346 347 345 344
341 344 344 342 344 345 345 347 349 354 352 352 352 350 349 347 346 347 346 346 345 345
340 342 345 345 342 344 345 348 352 354 353 353 354 350 349 347 348 348 346 346 346 347
341 340 342 346 345 340 345 345 352 353 353 353 353 353 352 350 348 348 349 348 347 347
346 342 339 344 345 344 341 345 346 352 353 353 352 352 352 353 350 348 349 349 348 349
348 348 344 340 344 343 345 345 349 348 352 353 352 353 351 351 350 349 349 350 352 352
347 349 349 344 341 342 341 347 347 351 351 351 354 342 340 347 350 350 349 349 349 351
349 348 349 350 346 343 341 340 347 346 350 351 353 337 336 341 350 350 351 351 351 351
351 350 350 350 350 348 346 341 342 350 347 348 351 335 333 338 350 349 347 351 353 352
353 352 351 349 349 350 349 347 343 344 351 351 351 331 331 334 348 349 348 347 349 352
346 351 351 351 351 351 351 350 349 347 347 342 351 333 328 331 350 346 347 348 347 335
342 350 352 352 352 352 351 350 350 350 350 351 350 350 326 324 351 351 347 344 345 347

GFSNIL_sfc_thetae_075.txt.gz
Theta_e
338 340 340 342 343 345 347 348 350 351 350 349 347 348 346 346 346 346 343 344 344 343
339 338 339 343 344 345 346 350 350 353 350 349 349 348 347 346 345 346 345 345 343 342
343 342 339 340 344 345 345 346 348 352 349 348 349 348 347 345 345 345 345 346 344 343
341 342 342 340 341 343 346 345 346 350 350 346 348 349 347 345 345 345 344 343 343 342
340 341 342 342 341 341 342 344 347 347 350 349 349 349 347 346 348 344 344 345 343 343
339 339 339 342 343 340 341 343 346 349 350 349 350 349 348 347 346 345 346 346 345 344
340 339 339 340 342 343 340 342 344 349 350 351 351 351 351 349 347 345 346 347 347 347
343 341 339 339 340 341 343 342 343 345 349 350 351 352 351 351 350 349 347 347 348 348
344 344 341 338 338 340 341 342 340 342 345 348 352 341 339 347 349 348 348 347 347 348
343 343 345 343 338 337 339 340 340 342 345 345 348 335 335 339 349 348 348 347 347 347
346 343 345 347 344 340 339 339 338 339 342 346 347 334 331 336 348 348 348 348 349 348
348 347 346 346 346 346 343 341 340 339 339 341 344 331 330 332 345 347 348 347 347 349
344 349 350 349 347 349 348 346 346 343 341 338 345 328 326 331 349 347 348 349 348 333
337 341 343 348 351 350 349 349 348 346 345 343 344 347 323 323 347 347 347 347 347 348

GFSNIL_sfc_thetae_078.txt.gz
Theta_e
341 342 342 344 345 345 347 350 353 353 353 352 352 351 350 349 349 350 349 349 351 349
340 341 341 344 346 347 349 351 352 354 354 351 350 352 352 350 349 352 352 351 350 349
340 341 342 343 345 347 349 350 353 354 355 353 351 350 351 350 351 350 350 350 351 350
342 341 340 341 344 347 349 349 350 352 354 354 350 351 350 350 351 349 350 350 350 350
343 343 342 341 342 345 347 349 350 351 353 353 352 352 352 349 352 349 349 350 349 349
341 341 343 343 343 344 345 346 348 350 350 352 352 352 352 351 351 351 351 350 350 351
341 340 341 343 344 343 344 344 346 348 350 352 353 353 353 352 351 351 351 352 352 352
342 342 341 342 342 345 344 344 346 346 350 352 353 352 353 353 352 351 351 351 352 353
343 343 341 341 341 342 344 344 343 344 347 350 352 341 339 349 353 353 352 352 353 354
344 344 344 342 340 340 341 344 342 343 344 346 349 335 335 339 353 353 353 353 353 351
343 343 345 345 341 340 340 341 341 343 344 344 345 331 332 336 350 352 352 352 352 352
347 344 344 345 346 344 341 340 340 341 342 344 345 327 327 333 349 350 351 352 353 353
336 342 346 345 346 347 347 343 342 342 342 336 343 327 324 329 346 345 347 351 353 333
332 335 340 344 350 348 349 347 346 344 345 344 340 342 321 322 346 347 346 347 348 352

GFSNIL_sfc_thetae_081.txt.gz
Theta_e
356 353 354 357 354 354 355 356 362 364 364 363 362 361 361 358 357 360 358 358 360 358
355 354 354 357 359 356 360 357 361 362 363 364 363 363 362 357 358 360 360 359 360 357
351 354 355 356 357 358 359 361 360 361 362 362 363 362 362 359 360 361 358 358 361 360
351 351 353 352 354 358 359 361 361 362 362 362 362 363 363 362 360 359 359 360 360 359
352 352 350 351 353 356 358 360 361 362 362 362 362 363 361 360 359 359 358 358 359 358
347 350 351 351 352 354 355 357 357 360 361 362 362 362 362 362 361 361 360 358 359 359
347 347 348 354 354 353 354 355 355 357 358 360 362 362 362 362 362 362 361 361 360 360
352 352 350 348 354 354 354 354 355 356 356 358 357 357 361 362 361 361 360 361 361 360
351 353 352 352 351 355 354 354 354 353 355 355 352 339 339 354 360 361 360 359 361 362
351 350 352 352 352 353 353 354 353 353 354 356 358 334 334 340 357 360 361 362 361 359
350 350 352 351 351 352 351 351 352 352 355 355 354 332 330 335 356 360 361 361 362 362
337 347 350 351 351 351 350 350 350 351 353 354 355 329 327 334 353 354 360 362 362 362
335 337 338 350 353 354 354 351 350 350 353 344 354 332 323 330 348 350 350 357 363 337
330 333 337 340 344 351 354 355 354 351 353 354 351 351 323 320 349 349 349 349 349 350

GFSNIL_sfc_thetae_084.txt.gz
Theta_e
363 357 357 357 352 354 354 356 361 366 363 362 363 364 364 357 356 360 356 359 360 352
361 361 356 358 359 355 359 356 362 364 360 362 364 366 366 357 361 361 361 359 361 357
359 361 361 360 359 359 357 361 361 364 364 361 364 365 366 360 363 361 356 355 360 361
357 358 360 358 358 359 360 362 365 365 365 361 362 365 366 363 361 359 359 360 361 362
358 358 356 357 357 359 360 360 363 366 366 364 362 364 365 361 357 360 359 359 361 360
355 356 355 356 358 358 359 360 360 362 363 364 361 363 367 364 362 362 361 361 361 360
352 352 353 354 357 358 359 359 358 359 361 362 362 360 363 364 364 363 363 364 363 362
356 356 354 356 355 357 359 359 360 358 358 359 359 358 360 361 364 365 364 364 365 364
355 356 357 358 357 356 358 359 360 358 357 356 351 340 338 353 364 362 364 362 364 365
354 354 356 357 358 358 356 357 361 359 358 359 359 334 332 340 356 358 362 364 362 360
344 349 355 356 357 357 357 357 357 358 360 360 359 333 331 334 356 359 363 363 362 364
327 335 343 351 355 357 356 358 357 357 358 360 360 330 328 336 354 353 359 363 365 367
326 330 331 342 351 358 363 356 355 355 358 349 359 335 324 332 351 351 349 358 364 339
325 326 329 331 340 351 358 360 360 358 359 361 356 356 323 321 353 351 350 349 349 350

GFSNIL_sfc_thetae_087.txt.gz
Theta_e
364 358 355 358 360 352 361 355 370 365 363 363 362 362 364 359 356 364 357 360 365 357
365 364 359 367 361 356 361 355 360 362 362 362 363 364 365 358 360 362 360 360 362 357
362 364 363 361 361 362 362 359 353 361 362 362 363 362 365 364 366 362 358 354 366 365
360 361 362 360 360 361 361 362 362 366 362 364 363 364 366 368 363 361 362 363 361 364
360 361 359 361 361 364 364 361 362 362 364 362 362 367 365 360 357 358 358 358 360 359
358 358 359 360 361 364 363 363 358 362 366 361 362 365 365 364 363 360 360 359 361 360
357 359 359 362 363 360 365 364 363 363 366 364 363 362 362 363 364 365 362 363 363 363
358 359 359 360 361 360 365 364 364 364 364 365 359 357 364 364 362 366 363 366 366 366
353 355 360 361 359 360 359 364 368 364 364 363 353 340 338 355 362 365 365 364 367 370
341 342 345 355 361 362 362 362 366 366 365 365 366 336 332 339 356 361 365 367 366 365
331 336 339 344 354 360 360 359 363 362 366 367 365 335 330 334 358 360 363 365 369 368
327 328 332 338 340 351 358 362 359 360 362 365 366 333 328 335 355 353 358 362 365 365
332 329 326 328 333 339 348 356 362 360 362 351 364 338 326 332 354 355 354 360 362 340
331 332 331 330 332 333 337 344 353 359 363 363 358 361 324 322 358 354 354 354 354 356

GFSNIL_sfc_thetae_090.txt.gz
Theta_e
366 363 357 360 359 351 357 356 364 364 368 370 367 367 367 365 363 364 363 362 365 360
366 365 359 365 368 366 362 353 356 360 366 369 365 365 368 364 364 364 364 364 364 363
364 366 367 369 360 370 360 350 352 352 352 364 367 364 365 363 362 363 364 359 363 362
362 364 366 365 369 368 371 356 351 338 340 358 365 367 367 362 357 360 360 364 361 362
363 363 363 364 365 369 368 369 363 354 357 362 366 363 362 363 360 359 360 361 361 359
361 362 362 364 364 367 367 366 363 364 366 366 364 366 363 361 364 361 361 362 362 361
359 360 361 365 364 365 367 365 364 365 365 364 363 365 365 365 362 362 360 363 363 363
349 358 366 367 364 366 368 365 365 365 364 366 363 361 361 362 364 362 361 363 364 363
342 347 351 356 362 364 365 364 365 363 363 361 358 342 338 355 360 363 362 359 362 364
338 340 342 346 351 358 361 364 362 360 364 361 363 341 333 336 357 362 361 363 360 358
332 333 335 338 342 344 349 358 361 360 361 361 362 339 335 335 350 355 357 362 363 362
332 332 332 331 333 338 341 345 355 358 360 361 360 334 329 335 354 353 353 355 359 359
334 334 333 334 333 336 340 342 348 350 358 350 357 339 326 331 355 354 354 355 355 339
332 333 336 336 337 335 335 339 342 346 352 357 354 355 327 322 354 356 354 354 354 356

GFSNIL_sfc_thetae_093.txt.gz
Theta_e
349 347 345 348 347 348 347 348 355 354 355 354 354 352 353 349 350 348 348 346 348 349
350 349 350 350 354 349 350 356 357 355 355 355 354 352 353 350 351 349 348 347 349 348
352 351 352 353 351 349 348 349 350 350 352 353 355 353 352 350 350 350 350 350 346 348
353 354 354 353 354 352 346 349 346 343 344 345 350 353 351 350 349 347 348 349 349 346
355 354 352 354 355 352 349 348 345 337 334 338 349 354 353 351 351 348 347 348 349 347
352 355 351 353 355 356 354 351 349 348 343 349 352 354 352 351 351 351 350 351 350 350
343 345 350 356 356 357 357 355 354 353 353 355 354 354 355 352 351 351 351 354 354 353
343 344 343 344 352 355 354 357 355 353 354 356 355 355 354 354 353 350 350 352 354 354
339 340 340 342 344 351 351 352 353 354 355 353 357 345 342 350 352 355 352 350 352 354
334 334 335 338 339 340 341 349 350 351 349 352 355 341 337 336 345 351 351 353 352 352
332 331 332 333 334 335 337 339 342 347 352 351 353 339 331 336 340 342 346 351 355 353
329 328 330 330 332 332 334 336 339 342 345 350 349 334 330 333 344 343 345 347 349 353
324 323 325 327 328 330 331 332 337 337 342 340 349 335 328 329 343 346 347 348 347 335
321 322 321 324 324 324 326 330 332 335 338 343 344 341 321 321 338 347 349 349 349 350

GFSNIL_sfc_thetae_099.txt.gz
Theta_e
342 340 342 342 343 344 344 346 347 348 348 347 344 343 346 345 345 344 342 342 340 343
343 343 342 343 342 343 345 347 348 348 349 349 349 347 347 345 345 345 343 342 340 343
343 346 344 342 343 344 344 345 349 349 350 350 350 349 347 346 345 343 343 344 343 341
346 345 344 345 346 348 347 347 347 349 349 350 349 349 347 346 345 344 342 343 343 343
346 346 345 345 346 349 347 346 346 346 345 346 347 348 348 345 347 346 344 342 342 342
343 342 344 345 345 348 347 344 344 342 341 341 342 343 347 349 347 346 346 346 342 342
340 335 337 339 342 345 348 343 343 342 339 337 334 338 345 347 347 347 347 347 346 345
338 340 339 338 339 340 343 347 346 345 345 343 343 347 346 348 349 346 345 346 347 348
337 337 337 336 336 336 337 339 341 345 347 346 351 342 337 346 348 349 347 346 346 347
332 331 331 332 332 332 333 335 336 338 342 343 345 333 330 334 343 345 346 347 348 348
328 330 330 330 329 330 331 331 333 335 338 339 343 328 327 331 337 341 341 341 345 346
321 325 323 322 325 328 329 330 331 334 335 336 338 326 322 327 339 341 341 342 342 344
315 316 316 319 320 324 324 324 328 330 334 332 338 318 319 327 338 339 340 342 343 330
309 312 312 314 315 315 318 319 321 327 335 335 330 327 316 318 329 327 329 332 333 337

GFSNIL_sfc_thetae_102.txt.gz
Theta_e
340 342 342 345 345 346 347 349 352 351 352 351 350 348 348 350 351 351 350 349 348 349
343 343 343 345 346 348 348 350 352 351 352 352 352 350 352 350 350 351 350 349 348 350
344 345 347 346 346 345 347 348 350 348 351 350 353 353 352 352 352 351 350 349 349 349
345 346 347 347 347 348 351 349 349 350 351 352 351 353 352 350 351 350 349 349 350 350
348 348 346 347 347 350 351 350 349 350 351 352 351 353 352 351 350 350 349 349 348 348
339 341 341 344 347 349 350 350 347 347 349 349 349 350 350 351 352 349 349 349 348 348
337 338 340 341 342 343 348 350 347 347 346 344 345 345 346 349 351 352 352 350 350 349
339 340 339 338 339 339 341 343 349 348 348 347 344 343 345 346 349 352 352 351 351 353
337 337 335 336 336 336 338 339 341 343 347 348 350 337 334 341 351 353 352 352 354 354
333 332 330 332 332 333 334 337 337 338 341 342 346 327 328 334 344 349 352 352 352 353
330 327 327 327 328 329 330 333 334 336 338 339 341 324 323 328 344 345 346 345 346 347
321 321 321 321 323 326 325 325 330 334 336 339 328 319 322 333 343 342 343 346 345 343
316 316 318 320 321 324 323 323 328 335 334 327 330 314 316 325 329 326 329 335 337 326
310 311 312 314 315 316 318 318 317 318 318 319 315 312 311 312 321 321 325 327 329 333

GFSNIL_sfc_thetae_105.txt.gz
Theta_e
356 354 352 354 353 354 356 361 361 363 363 359 359 358 359 358 359 361 360 357 360 357
354 354 354 356 357 355 359 357 360 361 361 361 361 359 359 357 359 361 361 360 360 356
355 356 356 356 356 357 358 360 359 360 361 361 361 362 361 362 362 361 359 358 359 360
355 356 357 356 357 357 358 359 358 359 358 359 360 362 362 361 361 360 360 359 359 359
355 356 355 355 357 358 357 360 360 360 360 361 360 361 362 359 359 359 358 358 358 358
354 355 356 356 357 360 359 360 359 357 358 359 360 360 361 361 361 360 359 359 357 357
350 351 350 352 353 355 359 360 359 358 357 358 357 356 356 356 357 359 358 360 360 359
341 346 347 348 348 350 354 355 358 358 358 357 354 353 355 355 355 355 357 360 360 362
341 345 342 344 344 346 348 350 353 354 356 355 353 329 332 345 358 360 360 359 362 363
334 334 336 339 340 341 343 345 345 348 350 350 344 324 326 334 357 357 357 358 358 358
330 330 333 332 331 332 336 339 342 346 347 338 328 319 323 331 355 355 352 351 351 351
325 326 328 326 326 328 330 334 340 342 335 329 322 314 317 332 338 338 339 341 337 336
321 325 325 327 328 327 329 326 323 323 322 316 316 310 311 322 329 330 331 333 335 325
317 317 318 319 321 323 322 319 319 318 318 314 312 308 308 309 320 322 324 325 326 327

GFSNIL_sfc_thetae_108.txt.gz
Theta_e
361 353 362 357 355 353 362 354 361 360 359 361 364 362 363 359 358 360 358 358 362 355
359 357 363 357 365 357 361 358 360 360 360 361 361 363 364 356 359 362 361 358 360 357
356 359 359 359 357 361 362 363 361 360 360 362 363 364 363 359 360 360 357 355 360 359
355 354 359 360 357 359 362 366 360 360 361 359 360 363 364 361 359 359 360 359 359 359
356 355 353 356 356 359 358 363 362 361 362 360 360 362 361 359 358 358 357 358 358 357
356 353 354 356 358 358 359 358 359 362 359 357 359 359 360 360 360 359 357 357 357 357
356 353 356 357 359 358 358 359 358 358 360 359 359 358 359 358 358 358 357 358 358 358
356 358 357 357 358 358 360 360 360 358 359 360 361 355 360 360 360 360 359 360 359 359
344 345 350 353 354 355 355 359 360 359 358 358 355 328 331 345 361 360 359 358 360 360
340 337 339 342 347 350 351 353 353 355 355 348 345 322 327 333 358 360 359 360 360 360
337 337 335 336 338 341 347 349 352 344 344 339 329 318 322 333 357 351 347 349 347 344
330 333 336 335 337 338 335 344 337 339 337 329 322 312 314 334 348 346 346 343 336 338
329 331 332 333 336 340 334 328 327 326 324 317 319 308 309 321 338 338 337 340 338 318
328 329 332 333 337 334 326 324 322 320 319 316 318 312 307 307 322 328 330 330 329 329

GFSNIL_sfc_thetae_111.txt.gz
Theta_e
359 354 354 356 352 352 357 353 365 361 362 361 362 362 364 359 358 363 358 360 365 356
359 358 357 358 360 359 362 358 360 359 359 360 362 363 365 357 360 363 361 360 361 358
356 358 358 359 358 360 350 363 363 360 359 360 361 363 365 364 362 361 357 354 364 361
354 354 357 357 358 359 360 361 362 362 360 360 360 361 362 366 364 359 360 360 359 359
357 355 352 355 356 360 360 361 361 362 361 360 360 365 361 359 359 359 357 357 358 356
360 354 354 354 355 358 361 361 359 360 361 363 361 362 363 361 360 358 359 359 360 357
360 357 355 357 356 356 359 360 360 361 360 360 361 361 360 360 359 359 357 358 357 359
360 363 361 360 359 357 357 359 359 359 359 360 357 354 355 359 359 360 358 359 359 359
356 352 358 359 355 360 358 358 358 357 358 359 346 328 329 343 358 359 359 358 359 358
347 341 343 346 352 355 354 357 357 357 352 347 339 319 323 333 354 359 359 360 360 359
340 337 337 338 338 340 345 352 353 347 344 339 327 315 318 326 359 353 354 352 352 350
340 340 339 335 334 337 342 339 341 341 333 329 320 311 315 333 353 350 346 337 333 337
334 334 338 341 342 344 339 334 330 324 324 319 319 308 310 322 341 344 342 344 328 317
334 336 337 338 339 334 328 327 325 320 318 316 317 310 308 308 323 320 329 335 333 328

GFSNIL_sfc_thetae_114.txt.gz
Theta_e
360 358 358 363 355 352 351 361 365 363 365 365 366 365 368 366 363 365 365 367 366 360
363 362 364 362 348 354 361 359 363 365 364 365 363 368 368 364 365 360 366 363 365 362
360 362 366 366 361 359 357 350 347 360 363 362 362 368 367 363 361 364 364 359 359 365
356 358 362 362 364 365 351 346 358 364 364 363 365 366 365 365 362 358 363 363 362 360
357 359 357 360 361 361 363 360 361 365 367 366 366 363 366 363 360 359 358 360 362 360
356 357 360 359 361 364 364 366 362 364 366 364 364 362 361 364 364 362 361 360 358 353
357 353 353 358 362 361 366 362 362 362 362 365 361 361 361 361 359 362 360 363 360 361
353 351 354 353 357 364 361 363 362 360 360 362 351 339 340 347 352 357 357 360 357 359
354 354 348 349 350 359 363 361 362 360 358 348 335 326 329 339 351 354 351 355 358 351
349 346 346 344 347 344 354 357 354 352 347 334 326 317 321 332 354 360 357 354 354 351
343 340 338 338 339 341 343 346 342 341 337 330 318 314 318 328 356 356 350 347 351 339
343 340 337 334 336 339 337 333 331 329 324 324 312 311 314 331 356 345 335 330 330 331
337 340 341 340 338 338 334 327 323 321 319 316 309 309 310 322 339 343 337 327 321 317
332 333 335 335 336 333 330 326 325 320 317 312 312 306 308 308 318 325 324 326 326 320

GFSNIL_sfc_thetae_117.txt.gz
Theta_e
345 343 347 348 346 344 346 348 351 352 352 353 354 351 353 350 350 349 350 350 348 350
350 349 347 349 344 346 352 355 349 349 352 351 353 352 353 350 349 348 350 348 348 348
349 350 351 350 342 348 348 343 338 336 344 351 353 355 352 349 346 349 349 349 347 349
349 351 350 351 350 351 345 338 336 338 347 350 350 351 351 349 349 348 348 349 348 348
349 348 351 349 350 349 340 341 349 351 352 351 352 353 352 351 350 348 347 348 347 347
347 348 348 349 348 350 349 350 352 352 352 352 352 351 350 350 350 350 349 346 347 349
344 344 346 348 349 350 352 351 351 351 352 351 348 347 349 350 351 349 350 349 350 349
345 346 346 349 348 349 351 350 349 349 347 341 336 334 338 348 345 346 343 341 350 343
343 343 342 343 344 347 347 346 346 344 336 331 327 327 326 336 343 346 343 340 343 339
339 337 336 340 341 343 346 346 341 333 325 317 316 319 321 331 341 344 339 340 342 331
337 336 335 335 339 342 341 337 332 328 320 311 310 315 319 330 343 331 331 332 328 322
335 333 334 336 336 332 328 324 324 319 313 308 306 312 320 336 335 326 321 320 320 316
336 335 333 332 334 331 326 322 320 316 310 310 305 310 315 325 334 322 316 314 312 316
333 332 333 333 332 327 321 318 315 312 309 308 307 307 309 313 318 321 319 312 310 311

GFSNIL_sfc_thetae_120.txt.gz
Theta_e
342 339 343 344 344 344 344 345 348 351 349 348 350 349 349 347 348 347 348 346 347 342
343 340 344 347 344 343 346 350 349 350 349 349 351 348 349 347 345 345 347 347 344 345
345 347 347 346 341 343 346 346 345 343 344 348 349 350 348 347 344 346 346 346 343 344
345 347 348 347 342 345 344 339 338 336 340 348 348 348 348 347 345 345 345 345 346 345
345 347 346 346 348 349 343 342 339 337 345 346 349 348 348 347 349 346 344 345 345 344
344 344 345 345 347 348 342 339 340 348 348 349 350 349 349 349 349 348 347 346 344 344
343 345 344 346 346 346 346 346 346 349 348 346 347 345 347 349 349 348 346 347 346 345
342 343 344 344 342 345 348 347 348 344 340 338 336 335 339 344 345 344 339 344 341 336
343 342 342 343 344 344 344 344 342 334 330 327 331 327 327 336 339 341 340 339 336 330
340 338 338 340 340 340 341 338 329 322 320 317 318 320 320 329 340 340 336 338 329 325
336 335 335 338 339 340 338 332 327 321 318 316 318 318 320 329 335 333 329 324 320 317
336 335 335 330 328 324 328 325 321 316 313 312 313 316 325 329 327 321 318 316 313 312
334 333 333 332 328 324 320 315 313 311 309 310 309 314 321 325 321 314 312 311 311 315
334 335 332 333 326 322 319 316 312 311 310 308 308 309 315 320 324 320 314 309 310 310

GFSNIL_sfc_thetae_123.txt.gz
Theta_e
341 340 341 343 342 342 343 343 346 348 346 346 346 347 347 346 346 345 345 345 344 338
341 338 340 344 343 342 344 346 346 349 348 347 348 347 345 345 343 343 345 344 343 344
341 339 340 344 344 342 342 346 348 347 346 347 346 347 346 345 344 343 345 344 341 343
342 343 345 344 343 341 344 343 343 343 342 345 346 347 347 345 344 342 342 343 343 342
342 344 345 344 344 340 344 341 339 337 338 345 346 347 346 346 347 343 343 343 343 343
341 342 343 343 346 344 344 342 341 339 340 346 347 347 347 347 347 347 345 345 343 343
341 342 342 343 343 344 342 340 338 340 345 348 348 348 347 348 346 346 345 345 344 344
342 342 342 343 344 344 345 345 345 345 343 341 340 337 339 342 346 343 344 340 338 336
340 340 338 338 340 340 341 342 340 339 335 334 333 325 328 332 341 342 340 335 332 332
340 339 338 339 339 338 340 337 332 328 327 326 323 321 320 328 338 340 336 332 326 325
337 337 337 337 336 338 340 330 326 324 326 325 323 322 321 329 337 333 330 324 320 321
336 335 335 331 327 325 326 323 318 316 316 320 322 319 325 329 326 321 319 316 314 315
336 335 331 328 323 319 315 312 312 311 314 314 317 318 321 322 318 313 313 313 314 316
335 334 332 328 324 319 316 315 315 313 311 310 311 317 316 316 318 316 315 314 316 315

GFSNIL_sfc_thetae_126.txt.gz
Theta_e
342 342 343 345 345 346 345 347 350 351 351 350 350 351 351 352 351 351 351 351 349 343
342 342 343 345 347 347 348 348 349 351 351 350 350 352 352 350 350 350 352 349 351 352
342 343 343 346 346 346 347 349 351 350 351 350 352 353 351 352 351 350 350 349 349 351
344 343 342 344 347 347 347 348 349 351 350 350 349 351 352 351 351 349 350 350 349 349
344 345 345 346 347 347 346 348 348 347 346 347 349 351 351 350 352 349 348 349 349 349
343 344 344 347 348 348 344 347 345 343 342 343 349 350 351 351 351 351 350 350 349 350
344 344 345 346 347 348 347 347 345 345 345 347 351 351 352 352 352 352 352 352 350 350
345 345 344 345 346 347 348 348 347 345 346 349 349 347 347 348 349 350 349 345 343 343
344 344 344 344 344 345 345 346 348 348 347 343 341 328 331 335 343 347 347 342 339 338
342 342 342 342 342 342 341 343 343 341 339 337 332 322 324 329 341 345 342 336 333 333
339 338 340 340 340 341 342 340 334 330 331 331 329 324 321 328 342 339 337 333 329 329
338 336 338 334 332 332 331 325 323 322 323 327 328 321 323 330 329 324 321 320 321 323
336 335 332 328 325 320 317 314 314 315 317 316 325 319 320 324 321 316 314 318 318 317
335 331 328 325 321 318 316 316 317 315 313 313 315 323 318 317 319 316 315 316 317 315